Weather Roundup
Issued by NWS

Home | Current Version | Previous Version | Graphics & Text | Print | Product List | Glossary Off
Versions: 1 2 3 4 5 6 7 8 9 10 11 12 13 14 15 16 17 18 19 20 21 22 23 24 25 26 27 28 29 30 31 32 33 34 35 36 37 38 39 40 41 42 43 44 45 46 47 48 49 50

000
NZUS93 KARX 080310
HRRWXR

CURRENT HOURLY OBSERVATIONS ACROSS
MUCH OF THE UPPER MISSISSIPPI VALLEY
NATIONAL WEATHER SERVICE LA CROSSE WI
900 PM CST WED DEC 07 2016


...SOUTHEAST MINNESOTA...


CITY           SKY/WX    TMP DP  RH WIND       PRES   REMARKS
ROCHESTER      LGT SNOW  15   9  76 W24G35    30.11S WCI  -4
ROCHESTER/MAYO CLOUDY    16   9  73 W26G36    30.11S WCI  -3
WINONA         FLURRIES  21  12  68 NW15G23   30.14R WCI   8
AUSTIN         CLOUDY    14   7  73 W20G29    30.16R WCI  -3
ALBERT LEA     CLOUDY    18   9  68 W17G29    30.17S WCI   2
DODGE CENTER   FLURRIES  16   9  73 W22G28    30.12R WCI  -2
PRESTON        LGT SNOW  16  10  79 W18       30.13R WCI  -1
OWATONNA       CLOUDY    16   7  67 W25G31    30.16R WCI  -3
FARIBAULT      NOT AVBL
$$

...ELSEWHERE IN MINNESOTA...


CITY           SKY/WX    TMP DP  RH WIND       PRES   REMARKS
MINNEAPOLIS    FLURRIES  16   8  71 W16       30.12S WCI   1
INTNL FALLS    LGT SNOW  23  19  85 N14       29.93R VSB 3/4 WCI  11
DULUTH         LGT SNOW  17  13  84 W16G24    29.88R FOG     WCI   2
RED WING       LGT SNOW  18   9  68 W18G28    30.11R WCI   2
REDWOOD FALLS  CLOUDY    12   4  70 W20G29    30.23R WCI  -6
MANKATO        PTCLDY    12   7  79 W21       30.19S WCI  -6
WORTHINGTON    PTCLDY     9   3  77 W24G32    30.25S WCI -12
FAIRMONT       PTCLDY    12   5  73 W20G28    30.23S WCI  -6
$$

...SOUTHWEST WISCONSIN...


CITY           SKY/WX    TMP DP  RH WIND       PRES   REMARKS
LA CROSSE      CLOUDY    22  12  65 W18G25    30.13R WCI   7
PRAIRIE DU CHI FLURRIES  23  14  67 W12       30.17R WCI  12
BOSCOBEL       CLOUDY    23  13  65 W16       30.15S WCI  10
LONE ROCK      CLOUDY    22  13  68 W14       30.12F WCI   9
PLATTEVILLE    CLOUDY    23  17  78 W18G26    30.13F WCI   8
FORT MC COY    LGT SNOW  20  13  73 W12G17    30.09S WCI   8
CAMP DOUGLAS   FLURRIES  19  12  73 W17       30.06S WCI   4
MAUSTON-NEW LI CLOUDY    21  12  68 W14G25    30.06S WCI   8
VIROQUA        CLOUDY    19  13  77 W13G22    30.08S WCI   5
WIS DELLS      FLURRIES  20  12  71 W12G20    30.07S WCI   8
$$

...ELSEWHERE IN WISCONSIN...


CITY           SKY/WX    TMP DP  RH WIND       PRES   REMARKS
MILWAUKEE      FLURRIES  23  12  62 W17G30    30.08F WCI   9
MADISON        FLURRIES  20  12  71 W14G21    30.09S WCI   7
GREEN BAY      CLOUDY    24  14  65 W14G25    29.99R WCI  12
EAU CLAIRE     CLOUDY    18  10  71 W21       30.05R WCI   1
BLACK RVR FLS  FLURRIES  20  11  68 W16G22    30.07S WCI   6
MEDFORD        FLURRIES  15   9  76 W14G23    29.94S WCI   1
WAUSAU         FLURRIES  18  11  74 W13G23    29.95S WCI   5
WIS RAPIDS     CLOUDY    19  12  74 W13       30.03S WCI   6
MARSHFIELD     CLOUDY    17  10  74 W18G26    29.97F WCI   1
RICE LAKE      FLURRIES  17  10  76 W14G24    30.03S WCI   2
$$

...NORTHEAST IOWA...


CITY           SKY/WX    TMP DP  RH WIND       PRES   REMARKS
WATERLOO       CLOUDY    20  10  65 W20G26    30.22S WCI   4
DUBUQUE        CLOUDY    21  13  71 W17       30.15F WCI   7
DECORAH        CLOUDY    19  10  68 NW16G29   30.13S WCI   5
MASON CITY     FLURRIES  16   8  71 NW21G26   30.22R WCI  -1
CHARLES CITY   FLURRIES  19  12  73 NW22G29   30.19R WCI   3
OELWEIN        FLURRIES  19  12  73 W24G30    30.19R WCI   2
$$

...ELSEWHERE IN IOWA...


CITY           SKY/WX    TMP DP  RH WIND       PRES   REMARKS
DES MOINES     CLEAR     20   8  60 NW22G30   30.32S WCI   3
IOWA CITY      CLEAR     21  12  68 W10       30.28R WCI  10
FORT DODGE     PTCLDY    16   5  62 W10G20    30.28R WCI   3
MARSHALLTOWN   CLEAR     18  11  74 W13       30.26S WCI   5
CEDAR RAPIDS   CLEAR     18  13  80 W17       30.23S WCI   3
$$

...NORTHERN ILLINOIS...


CITY           SKY/WX    TMP DP  RH WIND       PRES   REMARKS
CHICAGO-OHARE  CLOUDY    22  13  68 W23G35    30.14R WCI   6
CHICAGO-MIDWAY CLOUDY    24  14  65 W15G32    30.16R WCI  11
MOLINE         CLOUDY    25  12  58 W22G29    30.24R WCI  10
ROCKFORD       FLURRIES  24  15  68 W15       30.16F WCI  11
PEORIA         MOCLDY    25  14  63 W12       30.26R WCI  14
$$

NOTE: "FAIR" INDICATES FEW OR NO CLOUDS BELOW 12,000 FEET WITH NO
SIGNIFICANT WEATHER AND/OR OBSTRUCTIONS TO VISIBILITY. WIND
SPEEDS ARE IN MILES-PER-HOUR.




USA.gov is the U.S. government's official web portal to all federal, state and local government web resources and services.